Location: Bow
(51.5261°N, 0.0167°W)
Time: 22:40:21
(UTC+00:00)

Okean 1 Rocket - Pass Details

Date: 18 September 2020
Orbit: 606 x 635 km, 82.5° (Epoch: 20 October)

Event Time Altitude Azimuth Distance (km) Brightness Sun altitude
Exits shadow 19:51:19 31° 125° (SE) 1,131 3.8 -16.6°
Maximum altitude 19:52:32 36° 91° (E) 1,008 3.7 -16.7°
Drops below altitude 10° 19:56:39 10° 25° (NNE) 2,035 5.7 -17.3°
Sets 19:59:02 0° 17° (NNE) 2,948 6.7 -17.6°
